QTR24G OTHH-OOMS

Flight info

Callsign QTR24G
Flight time N/A
Altitude 33000
Route KUPRO N300 GIDOB N685 RURAL B415 SIXIV N318 LAKLU
Aircraft A320/M-SDE3FGHIRWY/LB1

Departure

Time 2026-05-07 12:36
Airport Hamad International Airport (OTHH)

Arrival

Time N/A
Airport Muscat International Airport (OOMS)
Time Latitude Longitude Altitude Speed Heading
2026-05-07 12:08 25.26473 51.60643 30 ft 0 kts 184°
2026-05-07 12:09 25.26477 51.60643 30 ft 0 kts 183°
2026-05-07 12:24 25.26486 51.60644 30 ft 4 kts 184°
2026-05-07 12:25 25.26512 51.60646 30 ft 3 kts 184°
2026-05-07 12:25 25.26534 51.60648 30 ft 4 kts 191°
2026-05-07 12:25 25.26559 51.60656 30 ft 4 kts 213°
2026-05-07 12:25 25.26574 51.60674 30 ft 4 kts 276°
2026-05-07 12:26 25.26567 51.60698 30 ft 2 kts 292°
2026-05-07 12:26 25.26566 51.60699 30 ft 0 kts 292°
2026-05-07 12:28 25.26568 51.60695 30 ft 3 kts 292°
2026-05-07 12:28 25.26586 51.60645 30 ft 9 kts 290°
2026-05-07 12:28 25.26580 51.60574 30 ft 11 kts 245°
2026-05-07 12:28 25.26549 51.60491 30 ft 13 kts 248°
2026-05-07 12:29 25.26514 51.60393 29 ft 15 kts 248°
2026-05-07 12:29 25.26554 51.60298 29 ft 16 kts 335°
2026-05-07 12:29 25.26667 51.60248 28 ft 19 kts 338°
2026-05-07 12:29 25.26797 51.60190 28 ft 21 kts 338°
2026-05-07 12:30 25.26940 51.60127 28 ft 23 kts 338°
2026-05-07 12:30 25.27095 51.60059 28 ft 25 kts 338°
2026-05-07 12:30 25.27261 51.59986 29 ft 26 kts 338°
2026-05-07 12:30 25.27437 51.59908 29 ft 28 kts 338°
2026-05-07 12:31 25.27607 51.59834 29 ft 26 kts 338°
2026-05-07 12:31 25.27782 51.59758 29 ft 27 kts 339°
2026-05-07 12:31 25.27963 51.59678 29 ft 28 kts 338°
2026-05-07 12:31 25.28141 51.59599 29 ft 27 kts 338°
2026-05-07 12:32 25.28321 51.59520 29 ft 29 kts 338°
2026-05-07 12:32 25.28506 51.59438 30 ft 27 kts 338°
2026-05-07 12:32 25.28688 51.59357 29 ft 29 kts 338°
2026-05-07 12:32 25.28868 51.59278 29 ft 24 kts 338°
2026-05-07 12:33 25.29103 51.59173 28 ft 14 kts 336°
2026-05-07 12:33 25.29131 51.59108 27 ft 2 kts 252°
2026-05-07 12:33 25.29130 51.59108 27 ft 0 kts 251°
2026-05-07 12:34 25.29130 51.59107 27 ft 1 kts 251°
2026-05-07 12:34 25.29113 51.59059 29 ft 12 kts 243°
2026-05-07 12:34 25.29028 51.59009 26 ft 16 kts 173°
2026-05-07 12:35 25.28855 51.59082 26 ft 54 kts 158°
2026-05-07 12:35 25.28300 51.59334 28 ft 116 kts 158°
2026-05-07 12:35 25.27397 51.59730 27 ft 161 kts 158°
2026-05-07 12:35 25.26283 51.60219 380 ft 173 kts 156°
2026-05-07 12:36 25.25166 51.60733 940 ft 174 kts 156°
2026-05-07 12:36 25.24053 51.61289 1377 ft 182 kts 157°
2026-05-07 12:36 25.22852 51.61865 1630 ft 194 kts 156°
2026-05-07 12:36 25.21537 51.62455 1781 ft 215 kts 160°
2026-05-07 12:37 25.20056 51.63068 1947 ft 240 kts 161°
2026-05-07 12:37 25.18418 51.63740 2195 ft 262 kts 160°
2026-05-07 12:37 25.16678 51.64469 2768 ft 271 kts 160°
2026-05-07 12:37 25.14912 51.65224 3505 ft 273 kts 159°
2026-05-07 12:38 25.13135 51.65995 4260 ft 275 kts 157°
2026-05-07 12:38 25.11502 51.67098 4810 ft 279 kts 132°
2026-05-07 12:38 25.10640 51.68996 5274 ft 277 kts 96°
2026-05-07 12:38 25.10676 51.71116 6035 ft 277 kts 85°
2026-05-07 12:39 25.10835 51.73238 6771 ft 278 kts 84°
2026-05-07 12:39 25.11006 51.75371 7478 ft 281 kts 84°
2026-05-07 12:39 25.11181 51.77524 8165 ft 283 kts 83°
2026-05-07 12:39 25.11699 51.79627 8842 ft 287 kts 65°
2026-05-07 12:40 25.12727 51.81525 9538 ft 290 kts 57°
2026-05-07 12:40 25.13829 51.83399 10181 ft 293 kts 57°
2026-05-07 12:40 25.14978 51.85359 10355 ft 316 kts 58°
2026-05-07 12:40 25.16206 51.87456 10581 ft 332 kts 58°
2026-05-07 12:41 25.17469 51.89618 11072 ft 338 kts 58°
2026-05-07 12:41 25.18749 51.91814 11642 ft 342 kts 58°
2026-05-07 12:41 25.20042 51.94034 12222 ft 346 kts 58°
2026-05-07 12:41 25.21349 51.96281 12813 ft 349 kts 57°
2026-05-07 12:42 25.22668 51.98549 13400 ft 353 kts 57°
2026-05-07 12:42 25.23999 52.00839 13944 ft 356 kts 58°
2026-05-07 12:42 25.25341 52.03154 14465 ft 360 kts 58°
2026-05-07 12:42 25.26664 52.05514 14975 ft 363 kts 63°
2026-05-07 12:43 25.27572 52.08122 15473 ft 365 kts 77°
2026-05-07 12:43 25.27904 52.10903 15987 ft 367 kts 91°
2026-05-07 12:43 25.27640 52.13706 16520 ft 368 kts 104°
2026-05-07 12:43 25.26865 52.16403 17056 ft 370 kts 111°
2026-05-07 12:44 25.26287 52.18218 17427 ft 372 kts 111°
2026-05-07 12:44 25.25429 52.20918 17989 ft 374 kts 111°
2026-05-07 12:44 25.24564 52.23643 18473 ft 377 kts 111°
2026-05-07 12:44 25.23693 52.26389 18931 ft 381 kts 111°
2026-05-07 12:45 25.22817 52.29167 19367 ft 385 kts 110°
2026-05-07 12:45 25.21932 52.31975 19828 ft 389 kts 110°
2026-05-07 12:45 25.21039 52.34810 20280 ft 393 kts 110°
2026-05-07 12:45 25.20135 52.37670 20719 ft 397 kts 110°
2026-05-07 12:46 25.19218 52.40561 21152 ft 401 kts 110°
2026-05-07 12:46 25.18293 52.43479 21591 ft 405 kts 110°
2026-05-07 12:46 25.17356 52.46431 22028 ft 409 kts 110°
2026-05-07 12:46 25.16414 52.49409 22458 ft 413 kts 110°
2026-05-07 12:47 25.15463 52.52413 22879 ft 417 kts 110°